| time (UTC) | temp F | wind direction | speed MPH | gust MPH | rain 1hr in | rain 24hr in | rain mn in | humidity % | barometer mb |
| 20260510201506 | 81 | 56 | 1.0 | 4.0 | 0.01 | 0.31 | 0.17 | 76 | 1016.1 |
| 20260510194511 | 81 | 118 | 2.0 | 5.0 | 0.01 | 0.32 | 0.17 | 76 | 1016.2 |
| 20260510193008 | 81 | 109 | 1.0 | 5.0 | 0.01 | 0.33 | 0.17 | 78 | 1016.1 |
| 20260510191506 | 81 | 120 | 2.0 | 5.0 | 0.01 | 0.32 | 0.16 | 77 | 1016.3 |
| 20260510190007 | 81 | 2 | 1.0 | 7.0 | 0.01 | 0.32 | 0.16 | 79 | 1016.6 |
| 20260510184503 | 80 | 129 | 1.0 | 4.0 | 0.01 | 0.33 | 0.16 | 81 | 1016.6 |
| 20260510183003 | 81 | 51 | 2.0 | 4.0 | 0.01 | 0.33 | 0.16 | 78 | 1016.9 |
| 20260510181510 | 81 | 102 | 1.0 | 3.0 | 0.00 | 0.33 | 0.15 | 77 | 1017.0 |
| 20260510174504 | 81 | 105 | 0.0 | 2.0 | 0.01 | 0.34 | 0.15 | 75 | 1017.3 |
| 20260510173004 | 81 | 352 | 1.0 | 4.0 | 0.01 | 0.34 | 0.15 | 72 | 1017.2 |
| 20260510171508 | 80 | 173 | 0.0 | 5.0 | 0.01 | 0.35 | 0.15 | 73 | 1017.4 |
| 20260510164511 | 81 | 85 | 0.0 | 2.0 | 0.01 | 0.35 | 0.14 | 74 | 1017.5 |
| 20260510163004 | 80 | 131 | 0.0 | 4.0 | 0.01 | 0.35 | 0.14 | 75 | 1017.6 |
| 20260510160014 | 78 | 123 | 0.0 | 2.0 | 0.01 | 0.37 | 0.14 | 81 | 1017.4 |
| 20260510154514 | 77 | 354 | 0.0 | 3.0 | 0.00 | 0.36 | 0.13 | 84 | 1017.5 |
| 20260510153017 | 76 | 94 | 1.0 | 3.0 | 0.01 | 0.37 | 0.13 | 85 | 1017.3 |
| 20260510151512 | 76 | 321 | 1.0 | 3.0 | 0.01 | 0.38 | 0.13 | 85 | 1017.4 |
| 20260510150013 | 75 | 339 | 1.0 | 5.0 | 0.01 | 0.38 | 0.13 | 88 | 1017.4 |
| 20260510144514 | 74 | 179 | 0.0 | 3.0 | 0.01 | 0.38 | 0.13 | 90 | 1017.5 |
| 20260510143015 | 73 | 165 | 1.0 | 4.0 | 0.01 | 0.37 | 0.12 | 90 | 1017.6 |
| 20260510141514 | 72 | 131 | 1.0 | 2.0 | 0.01 | 0.37 | 0.12 | 93 | 1017.6 |
| 20260510140007 | 71 | 83 | 0.0 | 3.0 | 0.01 | 0.38 | 0.12 | 95 | 1017.6 |
| 20260510134513 | 69 | 174 | 0.0 | 3.0 | 0.01 | 0.38 | 0.12 | 95 | 1017.5 |
| 20260510133016 | 69 | 334 | 1.0 | 3.0 | 0.01 | 0.37 | 0.11 | 95 | 1017.5 |
| 20260510131516 | 68 | 345 | 1.0 | 2.0 | 0.01 | 0.38 | 0.11 | 95 | 1017.5 |
| 20260510130018 | 68 | 333 | 1.0 | 3.0 | 0.01 | 0.38 | 0.11 | 95 | 1017.2 |
| 20260510123017 | 67 | 311 | 0.0 | 2.0 | 0.01 | 0.38 | 0.10 | 95 | 1016.7 |
| 20260510121518 | 66 | 131 | 0.0 | 2.0 | 0.01 | 0.39 | 0.10 | 95 | 1016.3 |
| 20260510120020 | 65 | 131 | 0.0 | 2.0 | 0.01 | 0.39 | 0.10 | 95 | 1016.0 |
| 20260510114509 | 65 | 269 | 0.0 | 0.0 | 0.02 | 0.40 | 0.10 | 95 | 1015.8 |
| 20260510111520 | 65 | 269 | 0.0 | 1.0 | 0.01 | 0.40 | 0.09 | 94 | 1015.6 |
| 20260510110037 | 65 | 309 | 0.0 | 0.0 | 0.01 | 0.41 | 0.09 | 94 | 1015.4 |
| 20260510104520 | 65 | 309 | 0.0 | 0.0 | 0.01 | 0.40 | 0.08 | 94 | 1015.2 |
| 20260510103013 | 65 | 309 | 0.0 | 0.0 | 0.01 | 0.41 | 0.08 | 94 | 1015.0 |
| 20260510100004 | 65 | 309 | 0.0 | 0.0 | 0.02 | 0.42 | 0.08 | 94 | 1014.8 |
| 20260510094504 | 66 | 309 | 0.0 | 0.0 | 0.01 | 0.42 | 0.07 | 94 | 1014.6 |
| 20260510093010 | 66 | 309 | 0.0 | 0.0 | 0.01 | 0.43 | 0.07 | 94 | 1014.5 |
| 20260510091514 | 66 | 309 | 0.0 | 0.0 | 0.02 | 0.43 | 0.07 | 94 | 1014.4 |
| 20260510090004 | 66 | 309 | 0.0 | 0.0 | 0.01 | 0.43 | 0.06 | 94 | 1014.1 |
| 20260510084504 | 66 | 309 | 0.0 | 0.0 | 0.01 | 0.44 | 0.06 | 94 | 1014.0 |
| 20260510083010 | 67 | 309 | 0.0 | 2.0 | 0.02 | 0.44 | 0.06 | 94 | 1013.9 |
| 20260510081512 | 67 | 277 | 0.0 | 2.0 | 0.01 | 0.44 | 0.05 | 94 | 1013.6 |
| 20260510080036 | 67 | 340 | 0.0 | 2.0 | 0.02 | 0.45 | 0.05 | 94 | 1013.4 |
| 20260510073005 | 67 | 53 | 0.0 | 2.0 | 0.01 | 0.45 | 0.04 | 94 | 1013.1 |
| 20260510071509 | 67 | 114 | 1.0 | 2.0 | 0.02 | 0.46 | 0.04 | 94 | 1013.2 |
| 20260510070015 | 67 | 120 | 0.0 | 1.0 | 0.01 | 0.46 | 0.03 | 94 | 1013.3 |
| 20260510064520 | 67 | 105 | 0.0 | 0.0 | 0.01 | 0.46 | 0.03 | 94 | 1013.4 |
| 20260510063005 | 67 | 83 | 0.0 | 0.0 | 0.02 | 0.47 | 0.03 | 94 | 1013.6 |
| 20260510061508 | 67 | 83 | 0.0 | 2.0 | 0.01 | 0.47 | 0.02 | 94 | 1013.6 |
| 20260510060024 | 67 | 21 | 0.0 | 0.0 | 0.02 | 0.48 | 0.02 | 94 | 1013.9 |
| 20260510054521 | 67 | 22 | 0.0 | 0.0 | 0.02 | 0.48 | 0.02 | 94 | 1014.0 |
| 20260510053020 | 67 | 56 | 0.0 | 2.0 | 0.01 | 0.48 | 0.01 | 94 | 1014.1 |
| 20260510051505 | 68 | 345 | 0.0 | 0.0 | 0.02 | 0.49 | 0.01 | 94 | 1014.2 |
| 20260510050012 | 68 | 345 | 0.0 | 1.0 | 0.01 | 0.49 | 0.00 | 94 | 1014.2 |
| 20260510044519 | 68 | 301 | 0.0 | 1.0 | 0.02 | 0.50 | 0.49 | 94 | 1014.0 |
| 20260510043020 | 68 | 354 | 0.0 | 2.0 | 0.02 | 0.51 | 0.49 | 94 | 1014.2 |
| 20260510041526 | 68 | 76 | 0.0 | 0.0 | 0.02 | 0.51 | 0.48 | 94 | 1014.3 |
| 20260510040012 | 68 | 320 | 0.0 | 0.0 | 0.02 | 0.51 | 0.48 | 94 | 1014.5 |
| 20260510034512 | 68 | 320 | 0.0 | 0.0 | 0.02 | 0.51 | 0.47 | 94 | 1014.8 |
| 20260510033020 | 68 | 320 | 0.0 | 0.0 | 0.02 | 0.52 | 0.47 | 94 | 1014.7 |
| 20260510031527 | 68 | 320 | 0.0 | 2.0 | 0.01 | 0.52 | 0.46 | 94 | 1014.6 |
| 20260510030024 | 68 | 349 | 0.0 | 1.0 | 0.02 | 0.52 | 0.46 | 94 | 1014.4 |
| 20260510024514 | 68 | 349 | 0.0 | 2.0 | 0.01 | 0.52 | 0.45 | 94 | 1014.2 |
| 20260510023017 | 68 | 301 | 0.0 | 2.0 | 0.02 | 0.54 | 0.45 | 94 | 1014.0 |
| 20260510021548 | 68 | 40 | 0.0 | 2.0 | 0.02 | 0.55 | 0.45 | 93 | 1014.0 |
| 20260510020024 | 68 | 96 | 0.0 | 2.0 | 0.02 | 0.55 | 0.44 | 93 | 1013.7 |
| 20260510014529 | 69 | 100 | 0.0 | 2.0 | 0.02 | 0.56 | 0.44 | 93 | 1013.8 |
| 20260510013014 | 69 | 97 | 0.0 | 2.0 | 0.02 | 0.56 | 0.43 | 93 | 1014.1 |
| 20260510011504 | 69 | 176 | 0.0 | 0.0 | 0.02 | 0.57 | 0.43 | 93 | 1014.4 |
| 20260510010013 | 69 | 277 | 0.0 | 0.0 | 0.01 | 0.57 | 0.42 | 93 | 1014.4 |
| 20260510004508 | 69 | 340 | 0.0 | 3.0 | 0.02 | 0.58 | 0.42 | 93 | 1014.6 |
| 20260510003019 | 69 | 79 | 0.0 | 2.0 | 0.01 | 0.58 | 0.41 | 93 | 1013.3 |
| 20260510001503 | 69 | 101 | 0.0 | 3.0 | 0.02 | 0.60 | 0.41 | 93 | 1012.8 |
| 20260510000004 | 69 | 96 | 2.0 | 5.0 | 0.02 | 0.61 | 0.41 | 93 | 1012.2 |
| 20260509234510 | 69 | 108 | 1.0 | 4.0 | 0.02 | 0.61 | 0.40 | 93 | 1012.8 |
| 20260509233013 | 69 | 113 | 0.0 | 2.0 | 0.02 | 0.62 | 0.40 | 93 | 1013.2 |
| 20260509231518 | 69 | 274 | 0.0 | 1.0 | 0.01 | 0.63 | 0.39 | 93 | 1013.2 |
| 20260509230013 | 69 | 274 | 0.0 | 2.0 | 0.02 | 0.64 | 0.39 | 92 | 1013.4 |
| 20260509224504 | 70 | 74 | 0.0 | 2.0 | 0.01 | 0.64 | 0.38 | 92 | 1013.5 |
| 20260509223012 | 70 | 98 | 0.0 | 1.0 | 0.02 | 0.65 | 0.38 | 92 | 1013.1 |
| 20260509221516 | 70 | 360 | 0.0 | 0.0 | 0.02 | 0.66 | 0.38 | 92 | 1013.2 |
| 20260509220017 | 70 | 360 | 0.0 | 2.0 | 0.01 | 0.66 | 0.37 | 91 | 1013.1 |
| 20260509214505 | 70 | 18 | 1.0 | 2.0 | 0.02 | 0.67 | 0.37 | 91 | 1012.8 |
| 20260509213010 | 70 | 302 | 0.0 | 2.0 | 0.01 | 0.67 | 0.36 | 91 | 1012.9 |
| 20260509211509 | 70 | 341 | 0.0 | 2.0 | 0.01 | 0.68 | 0.36 | 91 | 1013.0 |
| 20260509210015 | 70 | 201 | 0.0 | 2.0 | 0.02 | 0.69 | 0.36 | 91 | 1013.1 |
| 20260509204520 | 70 | 3 | 0.0 | 0.0 | 0.01 | 0.68 | 0.35 | 90 | 1013.2 |